This is the latest recevied weather packets stored in our database for station/object HK4RAU-16. If no packets are shown the sender has not sent any weather packets the latest 10 day(s).
| Time | Temp. | Humidity | Pressure | Rain* | Wind** | Luminosity | Snow |
|---|---|---|---|---|---|---|---|
| 1777414765 | 25° C | 76% | 1011 hPa | 0 mm | - | - | - |
| 1777414458 | 25° C | 77% | 1011 hPa | 0.25 mm | - | - | - |
| 1777414144 | 25° C | 77% | 1011 hPa | 0.25 mm | - | - | - |
| 1777413842 | 25° C | 77% | 1011 hPa | 0.51 mm | - | - | - |
| 1777413588 | 25° C | 77% | 1011 hPa | 0.51 mm | - | - | - |
| 1777413229 | 25° C | 76% | 1011 hPa | 0.51 mm | - | - | - |
| 1777412922 | 25° C | 76% | 1011 hPa | 0.51 mm | - | - | - |
| 1777412611 | 25° C | 85% | 1011 hPa | 0.51 mm | - | - | - |
| 1777412304 | 25° C | 85% | 1011 hPa | 0.51 mm | - | - | - |
| 1777412002 | 25° C | 72% | 1011 hPa | 0.76 mm | - | - | - |
| 1777411695 | 25° C | 72% | 1011 hPa | 0.76 mm | - | - | - |
| 1777411388 | 25.56° C | 71% | 1011 hPa | 0.76 mm | - | - | - |
| 1777411070 | 25.56° C | 71% | 1011 hPa | 0.76 mm | - | - | - |
| 1777410769 | 22.22° C | 66% | 1011 hPa | 0 mm | - | - | - |
| 1777410462 | 22.22° C | 66% | 1011 hPa | 0 mm | - | - | - |
| 1777410160 | 22.78° C | 66% | 1011 hPa | 0 mm | - | - | - |
| 1777409541 | 23.33° C | 66% | 1011 hPa | 0 mm | - | - | - |
| 1777409225 | 23.33° C | 66% | 1011 hPa | 0 mm | - | - | - |
| 1777408914 | 23.89° C | 66% | 1011 hPa | 0 mm | - | - | - |
| 1777408612 | 23.89° C | 66% | 1011 hPa | 0 mm | - | - | - |
| 1777408310 | 24.44° C | 66% | 1011 hPa | 0 mm | - | - | - |
| 1777407998 | 24.44° C | 66% | 1011 hPa | 0 mm | - | - | - |
| 1777407688 | 24.44° C | 66% | 1011 hPa | 0 mm | - | - | - |
| 1777407386 | 24.44° C | 66% | 1011 hPa | 0 mm | - | - | - |
| 1777407087 | 24.44° C | 66% | 1011 hPa | 0 mm | - | - | - |
* Rain latest hour (hover to see other rain measurements)
** Current wind speed in m/s (hover to see current wind gust speed)